STARLINK-32477, 62038

Orbit data source: Space-Track

STARLINK-32477, 62038 is a payload satellite owned by SpaceX/Seattle (US) in LEO that was launched on Thu, 21 Nov 2024 UTC via an FALCON 9 launch vehicle from the Air Force Eastern Test Range (AFETR). Payloads include a variety of satellites, spacecraft, and rockets equipped with specific instruments for various scientific and technological missions. These include communications satellites like Starlink; space stations such as the ISS; scientific satellites like the Hubble; Earth observation satellites from companies like Planet Labs, Umbra, and HawkEye 360; GPS; miniature CubeSats for education and research; and military/defense satellites.

Loading next visibility...
STARLINK-32477 details
Identifier
62038, 2024-216G
Orbit
LEO
Last TLE update9 hours ago
Origin
Flag of USSpaceX/Seattle (US)
ManufacturerSpaceX/Seattle
MissionOperational spacecraft
Bus & MotorSTARLINK V2M, Unknown motor
Mass730 kg wet, ~700 kg dry
Launch date (UTC)
2024-11-21 (1 month ago)
Launch vehicle
FALCON 9
Launch site
Air Force Eastern Test Range (AFETR)
Object type
Payload
Rocket body
Debris
Shape & HBRUnknown
Radar Cross SectionLarge (>1 m²)

Expand to show TLE details & history

TLE from 9 hours ago
0 STARLINK-32477
1 62038U 24216G   24361.04995403  .00002088  00000-0  57284-4 0  9992
2 62038  43.0002 234.9729 0001398 261.9152  98.1546 15.40673213  6464
Epoch: 2024-12-26T01:11Z
Definitive object data (Epoch: 2024-12-26T01:11:56.028Z)
Latitude-0°
Longitude121.95453°
Altitude444.031 km
Speed7.647 km/s
True Right ascension15h 39m 53s
True Declination0° 00' 00"
Sunlit
Object was in daylight at TLE epoch
Visualization TLE readout
Latitude-39.87029°
Longitude2.79159°
Altitude455.178 km
Speed7.64 km/s
Apparent Right ascension03h 09m 02s
Apparent Declination-75° 03' 01"
Sunlit
Object is in full shadow
Visualization observer readout
Local Sidereal Time09:24:30
Azimuth199.425° SSW
Elevation-39.293°
Doppler factor1
Orbital elements
Apogee altitude447.031 km
Perigee altitude445.123 km
Semi-major axis6,824.214 km
Eccentricity0.0001398
Inclination43.0002°
RAAN234.9729°
Arg. of periapsis261.9152°
True anomaly98.17046°
Mean anomaly98.1546°
Eccentric anomaly98.16253°
Mean motion3.85003 °/min
BSTAR0.000057284
Orbital period93.51 mins
Loading maneuver chart data...
Loading historical data...
Loading historical data...
Loading historical data...
Loading historical data...
Loading historical data...
Loading historical data...
Loading historical data...

STARLINK-32477 Visibility forecast

Observer location: undefined°, undefined

Span
Click to sort rows by Start time (UTC) header in descending order
Start Az.
Max El. time (UTC)
Max El. Az.
Max El.
End time (UTC)
End Az.
4 mins2024-12-26 18:30:23.325Z187.265° SSW2024-12-26 18:32:23.325Z146.593° SSE19.076°2024-12-26 18:34:23.325Z104.901° ESE
5 mins2024-12-26 20:08:23.325Z249.242° W2024-12-26 20:10:23.325Z83.42° E44.443°2024-12-26 20:13:23.325Z72.219° E
5 mins2024-12-26 21:46:23.325Z290.639° WNW2024-12-26 21:48:23.325Z355.398° N37.154°2024-12-26 21:51:23.325Z73.032° E
5 mins2024-12-26 23:24:23.325Z291.017° WNW2024-12-26 23:26:23.325Z318.979° NNW42.943°2024-12-26 23:29:23.325Z102.049° ESE
4 mins2024-12-27 01:03:23.325Z245.275° WSW2024-12-27 01:04:23.325Z218.102° SW23.869°2024-12-27 01:07:23.325Z155.095° SSE
|